TimeCDT,TemperatureF,Dew PointF,Humidity,Sea Level PressureIn,VisibilityMPH,Wind Direction,Wind SpeedMPH,Gust SpeedMPH,PrecipitationIn,Events,Conditions,WindDirDegrees,DateUTC
12:53 AM,53.1,46.0,77,29.94,10.0,South,4.6,-,N/A,,Clear,180,2013-09-30 05:53:00
1:53 AM,52.0,46.0,80,29.92,10.0,SSE,6.9,-,N/A,,Clear,160,2013-09-30 06:53:00
2:53 AM,52.0,46.0,80,29.91,10.0,SSE,8.1,-,N/A,,Clear,150,2013-09-30 07:53:00
3:53 AM,51.1,46.0,83,29.91,10.0,SSE,6.9,-,N/A,,Clear,160,2013-09-30 08:53:00
4:53 AM,51.1,46.9,86,29.88,10.0,South,9.2,-,N/A,,Clear,170,2013-09-30 09:53:00
5:53 AM,48.9,46.0,90,29.90,10.0,SSE,3.5,-,N/A,,Clear,150,2013-09-30 10:53:00
6:53 AM,50.0,46.9,89,29.90,10.0,SSE,6.9,-,N/A,,Clear,160,2013-09-30 11:53:00
7:53 AM,51.1,48.0,89,29.89,10.0,SSE,8.1,-,N/A,,Clear,160,2013-09-30 12:53:00
8:53 AM,57.0,48.9,74,29.89,10.0,South,6.9,-,N/A,,Clear,170,2013-09-30 13:53:00
9:53 AM,62.1,50.0,65,29.88,10.0,South,12.7,-,N/A,,Clear,180,2013-09-30 14:53:00
10:53 AM,66.9,51.1,57,29.87,10.0,South,17.3,23.0,N/A,,Clear,190,2013-09-30 15:53:00
11:53 AM,70.0,52.0,53,29.86,10.0,South,15.0,20.7,N/A,,Clear,170,2013-09-30 16:53:00
12:53 PM,71.1,50.0,47,29.84,10.0,South,18.4,23.0,N/A,,Clear,180,2013-09-30 17:53:00
1:53 PM,73.9,48.9,41,29.81,10.0,South,19.6,25.3,N/A,,Clear,180,2013-09-30 18:53:00
2:53 PM,75.9,48.0,37,29.79,10.0,South,17.3,28.8,N/A,,Clear,170,2013-09-30 19:53:00
3:53 PM,75.9,46.9,36,29.77,10.0,South,20.7,26.5,N/A,,Clear,190,2013-09-30 20:53:00
4:53 PM,75.9,46.9,36,29.75,10.0,South,18.4,28.8,N/A,,Clear,180,2013-09-30 21:53:00
5:53 PM,73.0,48.0,41,29.74,10.0,South,13.8,24.2,N/A,,Clear,180,2013-09-30 22:53:00
6:53 PM,70.0,48.9,47,29.75,10.0,South,12.7,-,N/A,,Clear,190,2013-09-30 23:53:00
7:53 PM,66.0,50.0,56,29.76,10.0,South,9.2,-,N/A,,Clear,180,2013-10-01 00:53:00
8:53 PM,64.9,51.1,61,29.78,10.0,South,9.2,-,N/A,,Clear,190,2013-10-01 01:53:00
9:53 PM,64.9,53.1,65,29.78,10.0,South,9.2,-,N/A,,Clear,190,2013-10-01 02:53:00
10:53 PM,64.0,55.9,75,29.79,10.0,South,9.2,-,N/A,,Clear,190,2013-10-01 03:53:00
11:53 PM,63.0,57.0,81,29.79,10.0,South,10.4,-,N/A,,Clear,190,2013-10-01 04:53:00